Location: Andrest
(43.3200°N, 0.0641°E)
Time: 10:27:18
(UTC+00:00)

IRS-1C Rocket - Pass Details

Date: 01 December 2020
Orbit: 800 x 806 km, 99.0° (Epoch: 23 January)

Event Time Altitude Azimuth Distance (km) Brightness Sun altitude
Rises 17:37:11 0° 145° (SE) 3,309 7.1 -12.8°
Reaches altitude 10° 17:39:36 10° 139° (SE) 2,382 6.3 -13.2°
Maximum altitude 17:44:33 44° 69° (ENE) 1,112 4.4 -14.1°
Drops below altitude 10° 17:49:33 10° 358° (N) 2,396 6.4 -14.9°
Sets 17:51:58 0° 353° (N) 3,331 7.2 -15.4°
